Weather History for La Junta, CO

Change the Weather History Date:

Monday, November 4, 2013

  Actual Average Record
Temperature  
Mean Temperature 44 °F 46 °F  
Max Temperature 56 °F 62 °F 80 °F (1945)
Min Temperature 31 °F 31 °F 2 °F (1991)
Degree Days  
Heating Degree Days 21 19  
Month to date heating degree days 69 72  
Since 1 July heating degree days 441 494  
Cooling Degree Days 0 0  
Month to date cooling degree days 0 0  
Year to date cooling degree days 1663 1226  
Moisture  
Dew Point 23 °F    
Average Humidity 50    
Maximum Humidity 75    
Minimum Humidity 24    
Precipitation  
Precipitation 0.00 in 0.01 in 0.99 in (1946)
Month to date precipitation 0.00 0.07  
Year to date precipitation 4.98 10.89  
Sea Level Pressure  
Sea Level Pressure 29.92 in    
Wind  
Wind Speed 9 mph (East)    
Max Wind Speed 28 mph    
Max Gust Speed 35 mph    
Visibility 10 miles    
Events      
T = Trace of Precipitation, MM = Missing Value Source: NWS Daily Summary

Daily Weather History Graph

Daily Weather History Graph

Search for Another Location

Airport:

Trip Planner

Search our weather history database for the weather conditions in past years. The results will help you decide how hot, cold, wet, or windy it might be!

Date:

Astronomy

Nov. 04, 2013 Rise Set
Actual Time 6:23 AM MST 4:51 PM MST
Civil Twilight 5:55 AM MST 5:18 PM MST
Nautical Twilight 5:24 AM MST 5:50 PM MST
Astronomical Twilight 4:53 AM MST 6:20 PM MST
Moon 7:35 AM MST (11/4) 5:59 PM MST (11/4)
Length of Visible Light 11h 23m
Length of Day
10h 28m
New Moon, 2% of the Moon is Illuminated
Nov 4
New Moon
Nov 9
First Quarter
Nov 17
Full
Nov 25
Last Quarter
Dec 2
New

Hourly Weather History & Observations

Time (MST) Temp. Windchill Dew Point Humidity Pressure Visibility Wind Dir Wind Speed Gust Speed Precip Events Conditions
12:03 AM 50.0 °F - 21.2 °F 32% 29.76 in 10.0 mi NNW 16.1 mph 29.9 mph N/A   Clear
12:53 AM 43.0 °F 33.5 °F 30.0 °F 60% 29.69 in 10.0 mi North 24.2 mph - N/A   Clear
1:53 AM 41.0 °F 31.9 °F 28.9 °F 62% 29.74 in 10.0 mi NNE 19.6 mph - N/A   Clear
2:53 AM 37.9 °F 28.9 °F 28.0 °F 68% 29.77 in 10.0 mi NNE 16.1 mph - N/A   Clear
3:53 AM 36.0 °F 28.5 °F 27.0 °F 70% 29.84 in 10.0 mi NNE 10.4 mph - N/A   Clear
4:53 AM 34.0 °F 26.6 °F 26.1 °F 73% 29.90 in 10.0 mi NNE 9.2 mph - N/A   Mostly Cloudy
5:24 AM 33.8 °F - 26.6 °F 75% 29.97 in 10.0 mi Calm Calm - N/A   Scattered Clouds
5:53 AM 32.0 °F 28.7 °F 24.1 °F 73% 29.94 in 10.0 mi WSW 3.5 mph - N/A   Clear
6:53 AM 33.1 °F 25.5 °F 26.1 °F 75% 29.98 in 10.0 mi WSW 9.2 mph - N/A   Clear
7:53 AM 37.0 °F 30.4 °F 27.0 °F 67% 30.00 in 10.0 mi West 9.2 mph - N/A   Clear
8:53 AM 41.0 °F 38.0 °F 26.1 °F 55% 30.02 in 10.0 mi WNW 4.6 mph - N/A   Clear
9:53 AM 44.1 °F 41.5 °F 18.0 °F 35% 30.01 in 10.0 mi NE 4.6 mph - N/A   Clear
10:53 AM 45.0 °F 43.5 °F 15.1 °F 30% 29.99 in 10.0 mi ESE 3.5 mph - N/A   Clear
11:53 AM 48.0 °F - 14.0 °F 26% 29.96 in 10.0 mi Variable 5.8 mph - N/A   Clear
12:53 PM 48.9 °F - 15.1 °F 26% 29.95 in 10.0 mi ESE 5.8 mph - N/A   Clear
1:53 PM 50.0 °F - 16.0 °F 26% 29.94 in 10.0 mi SE 5.8 mph - N/A   Clear
2:53 PM 51.1 °F - 18.0 °F 27% 29.93 in 10.0 mi ESE 12.7 mph - N/A   Clear
3:53 PM 50.0 °F - 21.0 °F 32% 29.94 in 10.0 mi SE 13.8 mph - N/A   Clear
4:53 PM 48.0 °F - 19.9 °F 33% 29.95 in 10.0 mi ESE 9.2 mph - N/A   Clear
5:53 PM 44.1 °F 38.6 °F 19.9 °F 38% 29.98 in 10.0 mi East 10.4 mph - N/A   Clear
6:53 PM 42.1 °F 36.1 °F 21.0 °F 43% 29.99 in 10.0 mi ESE 10.4 mph - N/A   Clear
7:53 PM 39.0 °F 33.4 °F 23.0 °F 53% 29.97 in 10.0 mi ESE 8.1 mph - N/A   Clear
8:53 PM 39.0 °F 33.4 °F 25.0 °F 57% 29.96 in 10.0 mi East 8.1 mph - N/A   Clear
9:53 PM 39.9 °F 34.5 °F 27.0 °F 60% 29.94 in 10.0 mi ESE 8.1 mph - N/A   Clear
10:53 PM 39.9 °F 34.5 °F 28.0 °F 63% 29.90 in 10.0 mi East 8.1 mph - N/A   Clear
11:53 PM 39.9 °F 35.1 °F 28.9 °F 65% 29.89 in 10.0 mi East 6.9 mph - N/A   Overcast